• In Uzbekistan
  • List of Countries
  • For 7 days
  • Water Temperature
  • Satellite Maps
  • Weather Map
  • Weather Widgets
  • user-avatar
    Login

    Hourly Weather San Miguel de Tucumán

    Today, 22 November, Wednesday

    Time Temperature Precipitation Wind Pressure Humidity
    00:00 +20°C° 0 mm 1 mps 721 mmHg 76%
    01:00 +19°C° 0 mm 2 mps 721 mmHg 75%
    02:00 +19°C° 0 mm 2 mps 721 mmHg 75%
    03:00 +19°C° 0 mm 2 mps 721 mmHg 76%
    04:00 +19°C° 0 mm 1 mps 721 mmHg 77%
    05:00 +19°C° 0 mm 1 mps 721 mmHg 78%
    06:00 +20°C° 0 mm 2 mps 721 mmHg 72%
    07:00 +21°C° 0 mm 2 mps 721 mmHg 66%
    08:00 +24°C° 0 mm 3 mps 722 mmHg 60%
    09:00 +26°C° 0 mm 3 mps 722 mmHg 53%
    10:00 +28°C° 0 mm 3 mps 721 mmHg 47%
    11:00 +30°C° 0 mm 3 mps 721 mmHg 40%
    12:00 +32°C° 0 mm 4 mps 720 mmHg 38%
    13:00 +32°C° 0 mm 4 mps 720 mmHg 35%
    14:00 +33°C° 0 mm 4 mps 719 mmHg 32%
    15:00 +33°C° 0 mm 4 mps 718 mmHg 33%
    16:00 +32°C° 0 mm 4 mps 718 mmHg 33%
    17:00 +31°C° 0 mm 3 mps 717 mmHg 33%
    18:00 +29°C° 0 mm 3 mps 717 mmHg 38%
    19:00 +27°C° 0 mm 2 mps 717 mmHg 43%
    20:00 +25°C° 0 mm 2 mps 718 mmHg 48%
    21:00 +24°C° 0 mm 2 mps 718 mmHg 49%
    22:00 +24°C° 0 mm 2 mps 718 mmHg 50%
    23:00 +23°C° 0 mm 2 mps 718 mmHg 51%

    Tomorrow, 23 November, Thursday

    Time Temperature Precipitation Wind Pressure Humidity
    00:00 +23°C° 0 mm 2 mps 718 mmHg 52%
    01:00 +23°C° 0 mm 2 mps 718 mmHg 53%
    02:00 +21°C° 0 mm 2 mps 717 mmHg 54%
    03:00 +21°C° 0 mm 2 mps 717 mmHg 53%
    04:00 +21°C° 0 mm 2 mps 717 mmHg 53%
    05:00 +21°C° 0 mm 2 mps 717 mmHg 52%
    06:00 +24°C° 0 mm 2 mps 717 mmHg 48%
    07:00 +26°C° 0 mm 3 mps 718 mmHg 44%
    08:00 +28°C° 0 mm 3 mps 718 mmHg 40%
    09:00 +30°C° 0 mm 3 mps 718 mmHg 37%
    10:00 +33°C° 0 mm 3 mps 718 mmHg 33%
    11:00 +35°C° 0 mm 3 mps 718 mmHg 30%
    12:00 +36°C° 0 mm 4 mps 717 mmHg 29%
    13:00 +37°C° 0 mm 4 mps 716 mmHg 27%
    14:00 +38°C° 0 mm 4 mps 716 mmHg 26%
    15:00 +37°C° 0 mm 4 mps 715 mmHg 27%
    16:00 +37°C° 0 mm 4 mps 715 mmHg 28%
    17:00 +37°C° 0 mm 4 mps 714 mmHg 29%
    18:00 +34°C° 0 mm 3 mps 714 mmHg 35%
    19:00 +31°C° 0 mm 3 mps 715 mmHg 41%
    20:00 +29°C° 0 mm 2 mps 715 mmHg 47%
    21:00 +28°C° 0 mm 2 mps 716 mmHg 48%
    22:00 +28°C° 0 mm 2 mps 716 mmHg 49%
    23:00 +27°C° 0 mm 2 mps 717 mmHg 50%

    Day after tomorrow, 24 November, Friday

    Time Temperature Precipitation Wind Pressure Humidity
    00:00 +27°C° 0 mm 2 mps 716 mmHg 50%
    01:00 +26°C° 0 mm 2 mps 716 mmHg 50%
    02:00 +26°C° 0 mm 2 mps 715 mmHg 49%
    03:00 +25°C° 0 mm 2 mps 715 mmHg 49%
    04:00 +25°C° 0 mm 2 mps 715 mmHg 48%
    05:00 +24°C° 0 mm 2 mps 715 mmHg 48%
    06:00 +26°C° 0 mm 2 mps 715 mmHg 45%
    07:00 +28°C° 0 mm 2 mps 716 mmHg 41%
    08:00 +30°C° 0 mm 3 mps 716 mmHg 38%
    09:00 +33°C° 0 mm 3 mps 716 mmHg 35%
    10:00 +35°C° 0 mm 3 mps 716 mmHg 32%
    11:00 +37°C° 0 mm 3 mps 716 mmHg 29%
    12:00 +38°C° 0 mm 3 mps 715 mmHg 28%
    13:00 +39°C° 0 mm 3 mps 714 mmHg 27%
    14:00 +40°C° 0 mm 3 mps 713 mmHg 26%
    15:00 +40°C° 0 mm 3 mps 713 mmHg 27%
    16:00 +39°C° 0 mm 3 mps 713 mmHg 28%
    17:00 +39°C° 0 mm 2 mps 712 mmHg 29%
    18:00 +36°C° 0.4 mm 2 mps 713 mmHg 36%
    19:00 +34°C° 0.4 mm 2 mps 714 mmHg 43%
    20:00 +30°C° 0.4 mm 2 mps 715 mmHg 50%
    21:00 +28°C° 1.3 mm 3 mps 716 mmHg 60%
    22:00 +26°C° 1.3 mm 3 mps 718 mmHg 70%
    23:00 +22°C° 1.3 mm 4 mps 719 mmHg 80%

    25 November, Saturday

    Time Temperature Precipitation Wind Pressure Humidity
    00:00 +22°C° 0 mm 4 mps 719 mmHg 81%
    01:00 +21°C° 0 mm 3 mps 719 mmHg 83%
    02:00 +20°C° 0 mm 3 mps 719 mmHg 84%
    03:00 +20°C° 0 mm 3 mps 719 mmHg 84%
    04:00 +19°C° 0 mm 2 mps 719 mmHg 85%
    05:00 +19°C° 0 mm 2 mps 719 mmHg 85%
    06:00 +20°C° 0 mm 2 mps 720 mmHg 81%
    07:00 +21°C° 0 mm 2 mps 720 mmHg 76%
    08:00 +23°C° 0 mm 2 mps 721 mmHg 71%
    09:00 +26°C° 0 mm 2 mps 721 mmHg 63%
    10:00 +28°C° 0 mm 2 mps 721 mmHg 55%
    11:00 +30°C° 0 mm 2 mps 721 mmHg 47%
    12:00 +31°C° 0 mm 3 mps 720 mmHg 44%
    13:00 +33°C° 0 mm 3 mps 720 mmHg 41%
    14:00 +34°C° 0 mm 3 mps 719 mmHg 38%
    15:00 +34°C° 0 mm 3 mps 718 mmHg 39%
    16:00 +32°C° 0 mm 2 mps 718 mmHg 39%
    17:00 +32°C° 0 mm 2 mps 718 mmHg 40%
    18:00 +30°C° 0 mm 2 mps 718 mmHg 46%
    19:00 +28°C° 0 mm 1 mps 719 mmHg 52%
    20:00 +26°C° 0 mm 1 mps 719 mmHg 58%
    21:00 +26°C° 0 mm 1 mps 720 mmHg 59%
    22:00 +25°C° 0 mm 1 mps 720 mmHg 60%
    23:00 +25°C° 0 mm 1 mps 720 mmHg 61%

    26 November, Sunday

    Time Temperature Precipitation Wind Pressure Humidity
    00:00 +24°C° 0 mm 1 mps 720 mmHg 61%
    01:00 +24°C° 0 mm 1 mps 719 mmHg 62%
    02:00 +24°C° 0 mm 1 mps 718 mmHg 62%
    03:00 +23°C° 0 mm 1 mps 718 mmHg 63%
    04:00 +23°C° 0 mm 1 mps 718 mmHg 64%
    05:00 +23°C° 0 mm 1 mps 718 mmHg 65%
    06:00 +25°C° 0 mm 1 mps 718 mmHg 61%
    07:00 +27°C° 0 mm 1 mps 719 mmHg 57%
    08:00 +29°C° 0 mm 2 mps 719 mmHg 53%
    09:00 +30°C° 0 mm 2 mps 719 mmHg 49%
    10:00 +31°C° 0 mm 3 mps 718 mmHg 46%
    11:00 +34°C° 0 mm 3 mps 718 mmHg 42%
    12:00 +35°C° 0.1 mm 3 mps 717 mmHg 40%
    13:00 +35°C° 0.1 mm 3 mps 716 mmHg 38%
    14:00 +36°C° 0.1 mm 3 mps 715 mmHg 36%
    15:00 +36°C° 0.1 mm 3 mps 714 mmHg 36%
    16:00 +35°C° 0.1 mm 3 mps 713 mmHg 37%
    17:00 +35°C° 0.1 mm 3 mps 712 mmHg 37%
    18:00 +33°C° 0 mm 3 mps 713 mmHg 42%
    19:00 +30°C° 0 mm 2 mps 713 mmHg 47%
    20:00 +28°C° 0 mm 2 mps 714 mmHg 51%
    21:00 +28°C° 0 mm 2 mps 714 mmHg 53%
    22:00 +27°C° 0 mm 2 mps 714 mmHg 54%
    23:00 +27°C° 0 mm 2 mps 714 mmHg 55%

    27 November, Monday

    Time Temperature Precipitation Wind Pressure Humidity
    00:00 +26°C° 0 mm 2 mps 714 mmHg 55%
    01:00 +26°C° 0 mm 2 mps 714 mmHg 56%
    02:00 +26°C° 0 mm 2 mps 713 mmHg 57%
    03:00 +25°C° 0 mm 2 mps 713 mmHg 58%
    04:00 +25°C° 0 mm 1 mps 714 mmHg 58%
    05:00 +24°C° 0 mm 1 mps 714 mmHg 59%
    06:00 +26°C° 0 mm 1 mps 715 mmHg 54%
    07:00 +28°C° 0 mm 1 mps 716 mmHg 50%
    08:00 +30°C° 0 mm 1 mps 716 mmHg 45%
    09:00 +32°C° 0 mm 1 mps 717 mmHg 41%
    10:00 +35°C° 0 mm 2 mps 717 mmHg 37%
    11:00 +37°C° 0 mm 2 mps 718 mmHg 33%
    12:00 +37°C° 0.1 mm 2 mps 717 mmHg 33%
    13:00 +37°C° 0.1 mm 3 mps 717 mmHg 33%
    14:00 +37°C° 0.1 mm 3 mps 717 mmHg 33%
    15:00 +36°C° 0.7 mm 3 mps 717 mmHg 38%
    16:00 +34°C° 0.7 mm 3 mps 717 mmHg 42%
    17:00 +33°C° 0.7 mm 4 mps 717 mmHg 47%
    18:00 +30°C° 1.8 mm 3 mps 719 mmHg 59%
    19:00 +27°C° 1.8 mm 3 mps 720 mmHg 72%
    20:00 +24°C° 1.8 mm 2 mps 721 mmHg 85%
    21:00 +23°C° 2.8 mm 2 mps 722 mmHg 88%
    22:00 +21°C° 2.8 mm 3 mps 722 mmHg 90%
    23:00 +21°C° 2.8 mm 3 mps 723 mmHg 93%
    Show more